Flag for Iran Weather past 2 weeks in Esfahãn, Iran

48 °F


Feels Like: 46 °F
Forecast: 26 / 56 °F
Wind: 5 mph from North

Location: Esfahan

Current Time: Nov 28, 2015 at 11:27:29 AM

Latest Report: Nov 28, 2015 at 10:00 AM

Visibility: 10 mi

Pressure: 30.21 "Hg (24.96 "Hg at 1576m altitude)

Humidity: 37%

Dew point: 23 °F

Location of EsfahãnLocation

Historic Weather in Esfahãn — Graph


Esfahãn temperature yesterday

Maximum temperature yesterday: 59 °F (at 2:30 PM)
Minimum temperature yesterday: 21 °F (at 1:00 AM)
Average temperature yesterday: 39 °F

Past Weeks' High & Low Weather Summary

High68 °F (Nov 18, 2:00 PM)87% (Nov 21, 6:30 AM)30.42 "Hg (Nov 21, 6:30 AM)
Low19 °F (Nov 26, 3:30 AM)9% (Nov 14, 2:30 PM)29.89 "Hg (Nov 18, 2:00 PM)
Average44 °F37%30.18 "Hg
* Reported Nov 13 10:00 AM — Nov 28 10:00 AM, Esfahãn, Weather by CustomWeather, © 2015

Note: Actual official high and low records may vary slightly from our data, if they occured in-between our weather recording intervals... More about our weather records


Esfahãn weather history for previous 24 hours

Time TempWeatherWind HumidityBarometerVisibility
10:00 AM
Sat, Nov 28
48 °FSunny.5 mph37%30.21 "Hg10 mi
9:30 AM46 °FSunny.5 mph37%30.21 "Hg10 mi
9:00 AM45 °FSunny.No wind37%30.21 "Hg10 mi
8:30 AM37 °FSunny.5 mph45%30.21 "Hg10 mi
8:00 AM32 °FSunny.5 mph51%30.21 "Hg10 mi
7:30 AM28 °FSunny.5 mph55%30.18 "Hg10 mi
7:00 AM27 °FClear.5 mph64%30.18 "Hg10 mi
6:30 AM23 °FClear.5 mph54%30.15 "Hg10 mi
6:00 AM23 °FClear.5 mph46%30.15 "Hg5 mi
5:30 AM25 °FClear.5 mph50%30.15 "Hg4 mi
5:00 AM27 °FClear.No wind54%30.15 "Hg4 mi
4:30 AM28 °FClear.7 mph51%30.15 "Hg4 mi
4:00 AM30 °FClear.5 mph51%30.15 "Hg4 mi
3:30 AM32 °FClear.5 mph51%30.15 "Hg10 mi
3:00 AM32 °FClear.No wind51%30.15 "Hg10 mi
2:30 AM32 °FClear.No wind51%30.15 "Hg10 mi
2:00 AM32 °FClear.5 mph55%30.15 "Hg10 mi
1:30 AM30 °FClear.5 mph47%30.15 "Hg10 mi
1:00 AM30 °FClear.5 mph43%30.15 "Hg10 mi
12:30 AM28 °FClear.5 mph43%30.18 "Hg10 mi
12:00 AM30 °FClear.5 mph40%30.18 "Hg10 mi
11:30 PM
Fri, Nov 27
30 °FClear.5 mph43%30.18 "Hg10 mi
11:00 PM36 °FClear.7 mph41%30.18 "Hg4 mi
10:30 PM34 °FHaze.5 mph38%30.18 "Hg3 mi
10:00 PM39 °FHaze.No wind39%30.18 "Hg3 mi
9:30 PM37 °FHaze.No wind41%30.18 "Hg3 mi
9:00 PM37 °FHaze.5 mph33%30.18 "Hg3 mi
8:30 PM45 °FHaze.7 mph29%30.18 "Hg3 mi
8:00 PM41 °FHaze.7 mph36%30.18 "Hg3 mi
7:30 PM41 °FHaze.7 mph36%30.18 "Hg3 mi
7:00 PM39 °FHaze.5 mph24%30.18 "Hg3 mi
6:30 PM48 °FClear.No wind27%30.15 "Hg4 mi
6:00 PM48 °FClear.No wind27%30.15 "Hg4 mi
5:30 PM50 °FHaze.No wind25%30.15 "Hg3 mi
5:00 PM55 °FHaze.5 mph23%30.15 "Hg3 mi
4:30 PM57 °FHaze.No wind23%30.15 "Hg3 mi
4:00 PM57 °FHaze.No wind21%30.15 "Hg3 mi
3:30 PM57 °FHaze.No wind20%30.15 "Hg2 mi
3:00 PM57 °FOvercast.5 mph20%30.15 "Hg2 mi
2:30 PM59 °FOvercast.No wind20%30.18 "Hg2 mi
2:00 PM57 °FHaze.No wind20%30.18 "Hg2 mi
1:30 PM57 °FHaze.5 mph20%30.18 "Hg2 mi
1:00 PM57 °FHaze.5 mph20%30.21 "Hg3 mi
12:30 PM57 °FHaze.2 mph20%30.21 "Hg3 mi
12:00 PM55 °FHaze.No wind18%30.21 "Hg3 mi
11:30 AM55 °FHaze.No wind21%30.24 "Hg3 mi
Weather by CustomWeather, © 2015

See weather overviewHow to use our weather pages